Tracking 28790 objects as of 19-Apr-2024
HD Live streaming from Space Station
objects crossing your sky now

SL-27 R/B

Track SL-27 R/B now!
10-day predictions


NORAD ID: 40354
Int'l Code: 2014-084B
Perigee: 352.3 km
Apogee: 383.0 km
Inclination: 74.7 °
Period: 91.8 minutes
Semi major axis: 6738 km
RCS: Unknown
Launch date: December 19, 2014
Source: Commonwealth of Independent States (former USSR) (CIS)
Launch site: TYURATAM MISSILE AND SPACE COMPLEX (TTMTR)

Note: This is a ROCKET BODY
Your satellite tracking list
Your tracking list is empty




NASA's NSSDC Master Catalog

Two Line Element Set (TLE):
1 40354U 14084B   24110.04035266  .00053196  00000-0  44435-3 0  9994
2 40354  74.7266 338.3981 0022821 175.7157 184.4271 15.69436701525240
Source of the keplerian elements: AFSPC